INTELSAT 20 (IS-20)

Last updated on Sat Dec 13 2025 00:02:48 GMT+0000 (Coordinated Universal Time)

1 38740U 12043A 25345.83258854 -.00000016 00000+0 00000+0 0 9990 2 38740 0.0053 83.8279 0002708 100.6018 264.5986 1.00270334 48879
UTC large
Height (km)
Speed (km/s)
/
Latitude / Longitude
Inclination (degrees)
Orbital Period (minutes)
Azimuth
Elevation
Range (km)
Doppler Factor

Next 0 passes for location: London (51.5072 / 0.1276)

Sorry there are no passes over London.